Check out our new BloomSky Weather System.

Active alerts

Houston, TX
  Details for Houston, TX Areal Flood Advisory


Thunder radar  blitzortung!


Rain radar more information rain snow radar


Visit our other weather sites:

Template documentation
and downloads

And another site



Weather Underground History page Text

Daily Summary for July 2, 2017 Units:  Metric    English   Both
« Previous Day
Next Day »
Daily Weekly Monthly Yearly Custom
  High: Low: Average:
Temperature: -17.8 °C 25.7 °C 29.8 °C
Dew Point: -17.8 °C 24.6 °C 25.2 °C
Humidity: Humidity % 56 % 77 %
Wind Speed: 0 km/h 0 km/h 6.3 km/h
Wind Gust: 0 km/h - -
Wind:- - SE
Pressure: 0 hPa 1015.8 hPa -
Precipitation: 0 mm    
Historical Graphs
 
 
Tabular Data for July 2, 2017
Time Temperature Dew Point Pressure Wind Wind Speed Wind Gust Humidity Rainfall Rate (Hourly)
-17.8 °C -17.8 °C 0 hPa Calm     Humidity % 0 mm
00:25 27.3 °C 24.7 °C 1018.2 hPa South 4.8 km/h -1607.7 km/h 86 % 0 mm
00:30 27.3 °C 24.7 °C 1018.5 hPa South 4.8 km/h 6.4 km/h 86 % 0 mm
00:35 27.2 °C 24.7 °C 1018.5 hPa SE 3.2 km/h 8 km/h 86 % 0 mm
00:40 27.2 °C 24.8 °C 1018.2 hPa SE 4.8 km/h 8 km/h 87 % 0 mm
00:45 27.2 °C 24.8 °C 1018.5 hPa SSE 3.2 km/h 8 km/h 87 % 0 mm
00:50 27.1 °C 24.7 °C 1018.2 hPa SE 4.8 km/h 8 km/h 87 % 0 mm
00:55 27.1 °C 24.7 °C 1018.2 hPa Calm   6.4 km/h 87 % 0 mm
01:00 27.1 °C 24.7 °C 1018.2 hPa SSE 3.2 km/h 6.4 km/h 87 % 0 mm
01:05 27 °C 24.6 °C 1018.2 hPa South 3.2 km/h 6.4 km/h 87 % 0 mm
01:10 26.9 °C 24.7 °C 1018.2 hPa SE 3.2 km/h 8 km/h 88 % 0 mm
01:16 26.9 °C 24.7 °C 1018.2 hPa SSE 6.4 km/h 8 km/h 88 % 0 mm
01:21 26.9 °C 24.7 °C 1018.2 hPa SE 3.2 km/h 8 km/h 88 % 0 mm
01:26 26.8 °C 24.6 °C 1017.8 hPa SSE 3.2 km/h 8 km/h 88 % 0 mm
01:31 26.8 °C 24.6 °C 1017.8 hPa South 4.8 km/h 8 km/h 88 % 0 mm
01:36 26.8 °C 24.6 °C 1018.2 hPa SE 1.6 km/h 8 km/h 88 % 0 mm
01:41 26.7 °C 24.7 °C 1018.2 hPa SSE 3.2 km/h 6.4 km/h 89 % 0 mm
01:46 26.7 °C 24.7 °C 1018.2 hPa SE 1.6 km/h 6.4 km/h 89 % 0 mm
01:51 26.7 °C 24.7 °C 1018.2 hPa South 1.6 km/h 6.4 km/h 89 % 0 mm
01:56 26.7 °C 24.7 °C 1018.2 hPa SSE 3.2 km/h 6.4 km/h 89 % 0 mm
02:01 26.7 °C 24.7 °C 1018.2 hPa SW 3.2 km/h 6.4 km/h 89 % 0 mm
02:06 26.6 °C 24.6 °C 1018.2 hPa SE 3.2 km/h 6.4 km/h 89 % 0 mm
02:11 26.6 °C 24.6 °C 1018.2 hPa South 1.6 km/h 6.4 km/h 89 % 0 mm
02:16 26.6 °C 24.8 °C 1017.8 hPa SSE 3.2 km/h 4.8 km/h 90 % 0 mm
02:21 26.6 °C 24.8 °C 1017.8 hPa SSE 3.2 km/h 4.8 km/h 90 % 0 mm
02:26 26.5 °C 24.7 °C 1017.8 hPa SSW 3.2 km/h 6.4 km/h 90 % 0 mm
02:31 26.5 °C 24.7 °C 1017.8 hPa SE 4.8 km/h 6.4 km/h 90 % 0 mm
02:36 26.5 °C 24.7 °C 1017.8 hPa SSE 1.6 km/h 6.4 km/h 90 % 0 mm
02:41 26.4 °C 24.6 °C 1017.8 hPa SE 1.6 km/h 4.8 km/h 90 % 0 mm
02:46 26.4 °C 24.6 °C 1017.8 hPa SE 1.6 km/h 4.8 km/h 90 % 0 mm
02:51 26.4 °C 24.6 °C 1017.8 hPa Calm   4.8 km/h 90 % 0 mm
02:56 26.4 °C 24.8 °C 1017.8 hPa SSE 1.6 km/h 6.4 km/h 91 % 0 mm
03:01 26.3 °C 24.7 °C 1017.8 hPa Calm   6.4 km/h 91 % 0 mm
03:06 26.3 °C 24.7 °C 1017.8 hPa East 3.2 km/h 6.4 km/h 91 % 0 mm
03:11 26.3 °C 24.7 °C 1017.8 hPa ESE 1.6 km/h 4.8 km/h 91 % 0 mm
03:16 26.3 °C 24.7 °C 1017.8 hPa East 6.4 km/h 6.4 km/h 91 % 0 mm
03:21 26.3 °C 24.7 °C 1017.8 hPa SE 1.6 km/h 6.4 km/h 91 % 0 mm
03:26 26.3 °C 24.7 °C 1017.8 hPa ESE 1.6 km/h 6.4 km/h 91 % 0 mm
03:31 26.2 °C 24.6 °C 1017.8 hPa Calm   6.4 km/h 91 % 0 mm
03:36 26.2 °C 24.8 °C 1017.5 hPa SE 1.6 km/h 6.4 km/h 92 % 0 mm
03:39 26.2 °C 24.8 °C 1017.5 hPa Calm   6.4 km/h 92 % 0 mm
03:44 26.2 °C 24.8 °C 1017.5 hPa ESE 3.2 km/h 6.4 km/h 92 % 0 mm
03:49 26.2 °C 24.8 °C 1017.5 hPa ESE 3.2 km/h 6.4 km/h 92 % 0 mm
03:54 26.2 °C 24.8 °C 1017.5 hPa SE 3.2 km/h 6.4 km/h 92 % 0 mm
04:58 26 °C 24.6 °C 1017.8 hPa Calm   4.8 km/h 92 % 0 mm
05:03 25.9 °C 24.7 °C 1017.8 hPa SE 1.6 km/h 6.4 km/h 93 % 0 mm
05:08 25.9 °C 24.7 °C 1018.2 hPa ESE 3.2 km/h 6.4 km/h 93 % 0 mm
05:13 25.9 °C 24.7 °C 1018.2 hPa Calm   6.4 km/h 93 % 0 mm
05:18 25.8 °C 24.6 °C 1018.5 hPa SSW 3.2 km/h 4.8 km/h 93 % 0 mm
05:23 25.8 °C 24.6 °C 1018.5 hPa South 1.6 km/h 6.4 km/h 93 % 0 mm
05:28 25.8 °C 24.6 °C 1018.5 hPa SE 1.6 km/h 6.4 km/h 93 % 0 mm
05:33 25.8 °C 24.6 °C 1018.5 hPa SE 1.6 km/h 6.4 km/h 93 % 0 mm
05:38 25.8 °C 24.6 °C 1018.5 hPa Calm   4.8 km/h 93 % 0 mm
05:43 25.8 °C 24.8 °C 1018.8 hPa Calm   4.8 km/h 94 % 0 mm
05:48 25.7 °C 24.7 °C 1018.5 hPa Calm   6.4 km/h 94 % 0 mm
05:53 25.7 °C 24.7 °C 1018.8 hPa Calm   6.4 km/h 94 % 0 mm
05:58 25.7 °C 24.7 °C 1018.8 hPa SE 1.6 km/h 6.4 km/h 94 % 0 mm
06:03 25.7 °C 24.7 °C 1018.8 hPa East 1.6 km/h 3.2 km/h 94 % 0 mm
06:05 25.7 °C 24.7 °C 1018.8 hPa SE 1.6 km/h 3.2 km/h 94 % 0 mm
06:10 25.7 °C 24.7 °C 1018.8 hPa SE 1.6 km/h 3.2 km/h 94 % 0 mm
06:15 25.7 °C 24.7 °C 1018.8 hPa Calm   3.2 km/h 94 % 0 mm
06:20 25.7 °C 24.7 °C 1018.8 hPa ESE 1.6 km/h 3.2 km/h 94 % 0 mm
06:25 25.7 °C 24.7 °C 1018.8 hPa Calm   4.8 km/h 94 % 0 mm
06:30 25.7 °C 24.7 °C 1019.2 hPa Calm   4.8 km/h 94 % 0 mm
06:35 25.7 °C 24.7 °C 1019.2 hPa ESE 3.2 km/h 4.8 km/h 94 % 0 mm
06:40 25.7 °C 24.7 °C 1019.5 hPa ESE 1.6 km/h 4.8 km/h 94 % 0 mm
06:45 25.7 °C 24.7 °C 1019.5 hPa ESE 1.6 km/h 4.8 km/h 94 % 0 mm
06:50 25.7 °C 24.7 °C 1019.5 hPa Calm   4.8 km/h 94 % 0 mm
06:55 25.7 °C 24.7 °C 1019.5 hPa SE 3.2 km/h 3.2 km/h 94 % 0 mm
06:56 25.8 °C 24.8 °C 1019.5 hPa Calm   3.2 km/h 94 % 0 mm
07:01 25.8 °C 24.8 °C 1019.5 hPa Calm   3.2 km/h 94 % 0 mm
07:06 25.8 °C 24.8 °C 1019.9 hPa SE 1.6 km/h 3.2 km/h 94 % 0 mm
07:11 25.9 °C 24.9 °C 1019.9 hPa Calm   3.2 km/h 94 % 0 mm
07:16 26.1 °C 25.1 °C 1019.9 hPa ENE 1.6 km/h 3.2 km/h 94 % 0 mm
07:21 26.2 °C 25.2 °C 1019.9 hPa SE 3.2 km/h 3.2 km/h 94 % 0 mm
07:26 26.3 °C 25.3 °C 1019.9 hPa SSE 1.6 km/h 4.8 km/h 94 % 0 mm
07:31 26.4 °C 25.4 °C 1019.9 hPa SSE 3.2 km/h 4.8 km/h 94 % 0 mm
07:36 26.6 °C 25.4 °C 1019.9 hPa SSE 1.6 km/h 4.8 km/h 93 % 0 mm
07:41 26.7 °C 25.5 °C 1020.2 hPa SSE 1.6 km/h 6.4 km/h 93 % 0 mm
07:46 26.9 °C 25.5 °C 1020.2 hPa East 3.2 km/h 8 km/h 92 % 0 mm
07:51 27 °C 25.6 °C 1020.2 hPa Calm   8 km/h 92 % 0 mm
07:56 27.2 °C 25.8 °C 1020.2 hPa SSE 4.8 km/h 8 km/h 92 % 0 mm
08:01 27.4 °C 25.8 °C 1020.2 hPa ENE 3.2 km/h 6.4 km/h 91 % 0 mm
08:06 27.7 °C 25.9 °C 1020.5 hPa ESE 4.8 km/h 6.4 km/h 90 % 0 mm
08:11 27.8 °C 25.8 °C 1020.5 hPa SSE 4.8 km/h 8 km/h 89 % 0 mm
08:16 28 °C 25.8 °C 1020.5 hPa SSE 3.2 km/h 11.3 km/h 88 % 0 mm
08:21 28.2 °C 25.8 °C 1020.5 hPa ESE 6.4 km/h 11.3 km/h 87 % 0 mm
08:26 28.3 °C 25.9 °C 1020.5 hPa ESE 11.3 km/h 12.9 km/h 87 % 0 mm
08:31 28.5 °C 25.9 °C 1020.5 hPa South 8 km/h 12.9 km/h 86 % 0 mm
08:36 28.7 °C 26.1 °C 1020.5 hPa SSE 4.8 km/h 12.9 km/h 86 % 0 mm
08:41 28.7 °C 25.9 °C 1020.5 hPa SSE 11.3 km/h 14.5 km/h 85 % 0 mm
08:46 28.8 °C 26 °C 1020.5 hPa SE 9.7 km/h 14.5 km/h 85 % 0 mm
08:51 28.9 °C 26.1 °C 1020.5 hPa SE 8 km/h 14.5 km/h 85 % 0 mm
08:56 29.1 °C 26.1 °C 1020.5 hPa SSE 8 km/h 14.5 km/h 84 % 0 mm
09:01 29.2 °C 26 °C 1020.5 hPa ESE 12.9 km/h 14.5 km/h 83 % 0 mm
09:06 29.3 °C 26.1 °C 1020.5 hPa SSE 3.2 km/h 14.5 km/h 83 % 0 mm
09:11 29.6 °C 26.2 °C 1020.5 hPa SSW 6.4 km/h 14.5 km/h 82 % 0 mm
09:16 29.7 °C 26.1 °C 1020.5 hPa SE 12.9 km/h 14.5 km/h 81 % 0 mm
09:21 29.8 °C 26 °C 1020.5 hPa SE 6.4 km/h 16.1 km/h 80 % 0 mm
09:26 29.8 °C 26 °C 1020.2 hPa SSE 8 km/h 16.1 km/h 80 % 0 mm
09:31 29.7 °C 25.7 °C 1020.2 hPa SE 9.7 km/h 16.1 km/h 79 % 0 mm
09:36 29.7 °C 25.9 °C 1020.2 hPa SE 8 km/h 16.1 km/h 80 % 0 mm
09:41 29.9 °C 26.1 °C 1020.2 hPa SE 4.8 km/h 16.1 km/h 80 % 0 mm
09:42 30 °C 26 °C 1020.2 hPa East 11.3 km/h 16.1 km/h 79 % 0 mm
09:47 30.2 °C 25.9 °C 1020.2 hPa ESE 9.7 km/h 17.7 km/h 78 % 0 mm
09:52 30.3 °C 26 °C 1020.2 hPa South 6.4 km/h 17.7 km/h 78 % 0 mm
09:57 30.6 °C 26.5 °C 1020.2 hPa SE 1.6 km/h 17.7 km/h 79 % 0 mm
10:02 30.5 °C 25.6 °C 1020.5 hPa SE 8 km/h 14.5 km/h 75 % 0 mm
10:07 30.5 °C 25.8 °C 1020.5 hPa South 9.7 km/h 12.9 km/h 76 % 0 mm
10:12 30.5 °C 25.8 °C 1020.5 hPa ESE 8 km/h 12.9 km/h 76 % 0 mm
10:18 30.6 °C 25.9 °C 1020.5 hPa SE 4.8 km/h 12.9 km/h 76 % 0 mm
10:23 30.6 °C 25.7 °C 1020.5 hPa SSW 3.2 km/h 12.9 km/h 75 % 0 mm
10:28 30.7 °C 26 °C 1020.5 hPa SSW 1.6 km/h 11.3 km/h 76 % 0 mm
10:33 30.9 °C 25.9 °C 1020.5 hPa SE 6.4 km/h 11.3 km/h 75 % 0 mm
10:38 31.1 °C 25.9 °C 1020.5 hPa SSE 6.4 km/h 9.7 km/h 74 % 0 mm
10:43 31.1 °C 25.7 °C 1020.5 hPa SSE 6.4 km/h 11.3 km/h 73 % 0 mm
10:48 31.2 °C 25.8 °C 1020.5 hPa SSE 6.4 km/h 12.9 km/h 73 % 0 mm
10:53 31.2 °C 25.5 °C 1020.5 hPa Calm   12.9 km/h 72 % 0 mm
10:58 31.4 °C 25.7 °C 1020.5 hPa SE 3.2 km/h 12.9 km/h 72 % 0 mm
11:03 31.7 °C 26.3 °C 1020.5 hPa SSE 4.8 km/h 12.9 km/h 73 % 0 mm
11:08 31.8 °C 25.4 °C 1020.5 hPa SE 9.7 km/h 12.9 km/h 69 % 0 mm
11:13 31.9 °C 25.5 °C 1020.5 hPa SSW 6.4 km/h 20.9 km/h 69 % 0 mm
11:18 32.1 °C 25.7 °C 1020.5 hPa SSW 3.2 km/h 20.9 km/h 69 % 0 mm
11:23 32.1 °C 25.4 °C 1020.2 hPa SSW 6.4 km/h 20.9 km/h 68 % 0 mm
11:28 32.1 °C 25.7 °C 1020.2 hPa SSE 4.8 km/h 16.1 km/h 69 % 0 mm
11:33 31.9 °C 25.5 °C 1020.2 hPa SE 4.8 km/h 11.3 km/h 69 % 0 mm
11:38 32.3 °C 25.6 °C 1020.2 hPa SSE 9.7 km/h 11.3 km/h 68 % 0 mm
11:43 32.4 °C 25.5 °C 1020.2 hPa SE 12.9 km/h 16.1 km/h 67 % 0 mm
11:48 32.6 °C 25.7 °C 1020.2 hPa SSE 4.8 km/h 16.1 km/h 67 % 0 mm
11:53 32.8 °C 25.9 °C 1020.2 hPa South 8 km/h 16.1 km/h 67 % 0 mm
11:58 32.8 °C 25.1 °C 1020.2 hPa SSW 4.8 km/h 16.1 km/h 64 % 0 mm
12:03 33 °C 25.5 °C 1020.2 hPa South 6.4 km/h 19.3 km/h 65 % 0 mm
12:08 33.2 °C 25.7 °C 1019.9 hPa SSW 6.4 km/h 19.3 km/h 65 % 0 mm
12:13 33.1 °C 25.4 °C 1019.9 hPa SSE 6.4 km/h 19.3 km/h 64 % 0 mm
12:19 32.9 °C 25.4 °C 1019.9 hPa ESE 4.8 km/h 20.9 km/h 65 % 0 mm
12:24 33.1 °C 25.4 °C 1019.9 hPa SE 14.5 km/h 20.9 km/h 64 % 0 mm
12:28 33.3 °C 25.3 °C 1019.9 hPa South 8 km/h 20.9 km/h 63 % 0 mm
12:33 33.5 °C 25.5 °C 1019.9 hPa SSE 12.9 km/h 19.3 km/h 63 % 0 mm
12:39 33.7 °C 25.9 °C 1019.9 hPa SSW 1.6 km/h 19.3 km/h 64 % 0 mm
12:44 33.7 °C 25.4 °C 1019.5 hPa ESE 8 km/h 14.5 km/h 62 % 0 mm
12:49 33.7 °C 25.1 °C 1019.2 hPa East 12.9 km/h 16.1 km/h 61 % 0 mm
12:54 33.6 °C 25.3 °C 1019.2 hPa SSE 11.3 km/h 20.9 km/h 62 % 0 mm
12:59 33.7 °C 25.7 °C 1019.2 hPa SSE 12.9 km/h 20.9 km/h 63 % 0 mm
13:04 33.8 °C 25.8 °C 1019.2 hPa WSW 4.8 km/h 20.9 km/h 63 % 0 mm
13:09 33.7 °C 25.1 °C 1018.8 hPa ESE 8 km/h 19.3 km/h 61 % 0 mm
13:14 33.4 °C 25.1 °C 1018.8 hPa SSW 4.8 km/h 19.3 km/h 62 % 0 mm
13:19 33.5 °C 25.5 °C 1018.8 hPa SE 11.3 km/h 17.7 km/h 63 % 0 mm
13:24 33.5 °C 25.7 °C 1018.8 hPa ESE 9.7 km/h 14.5 km/h 64 % 0 mm
13:29 33.8 °C 25.8 °C 1018.8 hPa SSE 8 km/h 14.5 km/h 63 % 0 mm
13:34 33.9 °C 25 °C 1018.8 hPa SSE 6.4 km/h 12.9 km/h 60 % 0 mm
13:39 34.1 °C 25.5 °C 1018.5 hPa SSW 9.7 km/h 14.5 km/h 61 % 0 mm
13:44 34 °C 25.7 °C 1018.5 hPa South 6.4 km/h 14.5 km/h 62 % 0 mm
13:49 33.8 °C 25.5 °C 1018.5 hPa East 6.4 km/h 14.5 km/h 62 % 0 mm
13:54 33.6 °C 25.6 °C 1018.5 hPa South 1.6 km/h 12.9 km/h 63 % 0 mm
13:59 33.8 °C 25.2 °C 1018.5 hPa SE 4.8 km/h 12.9 km/h 61 % 0 mm
14:04 33.8 °C 25.8 °C 1018.2 hPa SSW 3.2 km/h 12.9 km/h 63 % 0 mm
14:09 34.1 °C 25.5 °C 1018.5 hPa South 9.7 km/h 12.9 km/h 61 % 0 mm
14:14 34.2 °C 25.6 °C 1018.2 hPa SSE 6.4 km/h 19.3 km/h 61 % 0 mm
14:19 33.9 °C 25 °C 1018.2 hPa SSE 8 km/h 19.3 km/h 60 % 0 mm
14:24 33.8 °C 25.2 °C 1018.2 hPa ESE 6.4 km/h 19.3 km/h 61 % 0 mm
14:29 33.8 °C 26 °C 1017.8 hPa SW 3.2 km/h 12.9 km/h 64 % 0 mm
14:34 34.2 °C 25.9 °C 1017.8 hPa South 6.4 km/h 14.5 km/h 62 % 0 mm
14:39 34.4 °C 25.8 °C 1017.8 hPa ESE 4.8 km/h 14.5 km/h 61 % 0 mm
14:44 34.1 °C 24.9 °C 1017.8 hPa SE 6.4 km/h 14.5 km/h 59 % 0 mm
14:49 33.9 °C 25 °C 1017.8 hPa East 9.7 km/h 11.3 km/h 60 % 0 mm
14:54 34.1 °C 25.5 °C 1017.8 hPa SSW 3.2 km/h 11.3 km/h 61 % 0 mm
14:59 34.4 °C 25.5 °C 1017.8 hPa East 9.7 km/h 11.3 km/h 60 % 0 mm
15:04 34.4 °C 25.2 °C 1017.8 hPa SE 4.8 km/h 16.1 km/h 59 % 0 mm
15:09 34.4 °C 24.9 °C 1017.5 hPa SE 6.4 km/h 16.1 km/h 58 % 0 mm
15:14 34.6 °C 25.1 °C 1017.5 hPa SE 8 km/h 16.1 km/h 58 % 0 mm
15:19 34.7 °C 24.9 °C 1017.5 hPa SSE 3.2 km/h 16.1 km/h 57 % 0 mm
15:24 34.7 °C 25.2 °C 1017.5 hPa SSE 9.7 km/h 16.1 km/h 58 % 0 mm
15:29 34.7 °C 25.5 °C 1017.2 hPa SSE 4.8 km/h 16.1 km/h 59 % 0 mm
15:34 34.8 °C 25 °C 1017.5 hPa ESE 11.3 km/h 14.5 km/h 57 % 0 mm
15:39 35.1 °C 25.9 °C 1017.2 hPa South 8 km/h 14.5 km/h 59 % 0 mm
15:44 35.1 °C 25 °C 1017.2 hPa East 1.6 km/h 14.5 km/h 56 % 0 mm
15:49 35.1 °C 26.2 °C 1017.2 hPa SSE 4.8 km/h 14.5 km/h 60 % 0 mm
15:54 34.7 °C 25.8 °C 1017.2 hPa East 4.8 km/h 16.1 km/h 60 % 0 mm
15:59 34.2 °C 25.6 °C 1017.2 hPa East 4.8 km/h 16.1 km/h 61 % 0 mm
16:04 34.1 °C 26 °C 1017.2 hPa ENE 9.7 km/h 16.1 km/h 63 % 0 mm
16:09 34 °C 26 °C 1017.2 hPa SE 4.8 km/h 16.1 km/h 63 % 0 mm
16:14 33.7 °C 25.9 °C 1017.2 hPa SE 11.3 km/h 19.3 km/h 64 % 0 mm
16:19 33.7 °C 26.2 °C 1017.2 hPa SSE 11.3 km/h 19.3 km/h 65 % 0 mm
16:24 33.7 °C 25.9 °C 1017.2 hPa ESE 14.5 km/h 19.3 km/h 64 % 0 mm
16:29 33.5 °C 26 °C 1017.2 hPa ESE 4.8 km/h 19.3 km/h 65 % 0 mm
16:34 33.4 °C 26.2 °C 1016.8 hPa SE 3.2 km/h 19.3 km/h 66 % 0 mm
16:39 33.6 °C 26.1 °C 1017.2 hPa East 4.8 km/h 19.3 km/h 65 % 0 mm
16:44 33.7 °C 26.2 °C 1016.8 hPa East 6.4 km/h 19.3 km/h 65 % 0 mm
16:49 33.6 °C 26.4 °C 1016.8 hPa East 12.9 km/h 19.3 km/h 66 % 0 mm
16:54 33.6 °C 26.4 °C 1016.8 hPa East 6.4 km/h 24.1 km/h 66 % 0 mm
16:59 33.6 °C 26.4 °C 1016.5 hPa ESE 6.4 km/h 24.1 km/h 66 % 0 mm
17:04 33.7 °C 26.5 °C 1016.5 hPa South 6.4 km/h 24.1 km/h 66 % 0 mm
17:09 33.8 °C 26 °C 1016.5 hPa ESE 6.4 km/h 19.3 km/h 64 % 0 mm
17:14 33.7 °C 26.2 °C 1016.5 hPa SSE 9.7 km/h 22.5 km/h 65 % 0 mm
17:19 33.6 °C 26.4 °C 1016.5 hPa ESE 8 km/h 22.5 km/h 66 % 0 mm
17:24 33.5 °C 26.3 °C 1016.5 hPa South 9.7 km/h 22.5 km/h 66 % 0 mm
17:29 33.3 °C 26.1 °C 1016.1 hPa SSE 6.4 km/h 19.3 km/h 66 % 0 mm
17:34 33.3 °C 26.1 °C 1016.5 hPa SE 14.5 km/h 20.9 km/h 66 % 0 mm
17:39 33.2 °C 26 °C 1016.1 hPa ESE 6.4 km/h 24.1 km/h 66 % 0 mm
17:44 33.2 °C 26 °C 1016.1 hPa ESE 8 km/h 24.1 km/h 66 % 0 mm
17:49 33.2 °C 26.2 °C 1016.1 hPa SE 11.3 km/h 24.1 km/h 67 % 0 mm
17:54 33.1 °C 26.1 °C 1016.1 hPa SE 9.7 km/h 22.5 km/h 67 % 0 mm
17:59 33.1 °C 26.1 °C 1016.1 hPa SE 4.8 km/h 19.3 km/h 67 % 0 mm
18:05 33 °C 26 °C 1016.1 hPa ESE 12.9 km/h 19.3 km/h 67 % 0 mm
18:09 32.8 °C 25.9 °C 1016.1 hPa ENE 3.2 km/h 19.3 km/h 67 % 0 mm
18:14 32.8 °C 25.9 °C 1016.1 hPa ESE 9.7 km/h 16.1 km/h 67 % 0 mm
18:15 32.8 °C 25.9 °C 1016.1 hPa SE 9.7 km/h 16.1 km/h 67 % 0 mm
18:20 32.9 °C 25.7 °C 1015.8 hPa SSE 11.3 km/h 17.7 km/h 66 % 0 mm
18:25 33 °C 25.8 °C 1015.8 hPa ESE 8 km/h 17.7 km/h 66 % 0 mm
18:31 33.1 °C 25.6 °C 1015.8 hPa ESE 11.3 km/h 17.7 km/h 65 % 0 mm
18:35 33.1 °C 25.9 °C 1015.8 hPa South 9.7 km/h 17.7 km/h 66 % 0 mm
18:41 33.1 °C 26.1 °C 1015.8 hPa SSE 16.1 km/h 19.3 km/h 67 % 0 mm
18:46 33.1 °C 25.9 °C 1015.8 hPa SSE 9.7 km/h 19.3 km/h 66 % 0 mm
18:51 32.9 °C 25.7 °C 1015.8 hPa SSW 16.1 km/h 19.3 km/h 66 % 0 mm
18:56 32.8 °C 25.9 °C 1015.8 hPa SSE 17.7 km/h 19.3 km/h 67 % 0 mm
19:01 32.8 °C 25.6 °C 1015.8 hPa South 17.7 km/h 20.9 km/h 66 % 0 mm
19:06 32.7 °C 25.5 °C 1015.8 hPa SE 11.3 km/h 24.1 km/h 66 % 0 mm
19:11 32.5 °C 25.6 °C 1015.8 hPa SSE 14.5 km/h 24.1 km/h 67 % 0 mm
19:16 32.3 °C 25.4 °C 1016.1 hPa South 11.3 km/h 24.1 km/h 67 % 0 mm
19:21 32.2 °C 25.5 °C 1016.1 hPa South 12.9 km/h 24.1 km/h 68 % 0 mm
19:26 31.9 °C 25.5 °C 1016.1 hPa East 11.3 km/h 20.9 km/h 69 % 0 mm
19:28 31.8 °C 25.4 °C 1016.1 hPa SE 16.1 km/h 20.9 km/h 69 % 0 mm
19:33 31.7 °C 25.3 °C 1016.1 hPa SE 9.7 km/h 20.9 km/h 69 % 0 mm
19:38 31.6 °C 25.2 °C 1015.8 hPa ESE 16.1 km/h 20.9 km/h 69 % 0 mm
19:43 31.4 °C 25.3 °C 1016.1 hPa SSE 8 km/h 22.5 km/h 70 % 0 mm
19:48 31.2 °C 25.1 °C 1016.1 hPa SE 11.3 km/h 22.5 km/h 70 % 0 mm
19:53 31.1 °C 25.2 °C 1016.1 hPa SSW 9.7 km/h 22.5 km/h 71 % 0 mm
19:58 30.9 °C 25 °C 1016.1 hPa SSE 12.9 km/h 20.9 km/h 71 % 0 mm
20:03 30.9 °C 25 °C 1016.1 hPa ESE 12.9 km/h 20.9 km/h 71 % 0 mm
20:08 30.8 °C 24.9 °C 1016.1 hPa SE 9.7 km/h 19.3 km/h 71 % 0 mm
20:13 30.7 °C 24.8 °C 1016.1 hPa South 9.7 km/h 20.9 km/h 71 % 0 mm
20:18 30.6 °C 25 °C 1016.1 hPa South 6.4 km/h 20.9 km/h 72 % 0 mm
20:23 30.4 °C 24.8 °C 1016.1 hPa SE 11.3 km/h 20.9 km/h 72 % 0 mm
20:28 30.3 °C 24.7 °C 1016.1 hPa East 16.1 km/h 17.7 km/h 72 % 0 mm
20:33 30.3 °C 24.7 °C 1016.1 hPa SSE 8 km/h 19.3 km/h 72 % 0 mm
20:38 30.2 °C 24.8 °C 1016.1 hPa SE 9.7 km/h 19.3 km/h 73 % 0 mm
20:43 30.1 °C 24.7 °C 1016.1 hPa SE 14.5 km/h 19.3 km/h 73 % 0 mm
20:48 30 °C 24.6 °C 1016.1 hPa SE 4.8 km/h 19.3 km/h 73 % 0 mm
20:53 29.9 °C 24.8 °C 1016.1 hPa SE 6.4 km/h 19.3 km/h 74 % 0 mm
20:58 29.8 °C 24.7 °C 1016.1 hPa SE 3.2 km/h 19.3 km/h 74 % 0 mm
21:03 29.8 °C 24.9 °C 1016.1 hPa South 4.8 km/h 12.9 km/h 75 % 0 mm
21:08 29.6 °C 24.7 °C 1016.1 hPa South 6.4 km/h 12.9 km/h 75 % 0 mm
21:13 29.5 °C 24.8 °C 1016.1 hPa SSE 9.7 km/h 14.5 km/h 76 % 0 mm
21:23 29.3 °C 24.8 °C 1016.5 hPa South 9.7 km/h 16.1 km/h 77 % 0 mm
21:28 29.3 °C 24.8 °C 1016.5 hPa South 12.9 km/h 17.7 km/h 77 % 0 mm
21:33 29.2 °C 25 °C 1016.5 hPa SSE 9.7 km/h 19.3 km/h 78 % 0 mm
21:38 29.1 °C 24.9 °C 1016.5 hPa SE 6.4 km/h 22.5 km/h 78 % 0 mm
21:43 29 °C 24.8 °C 1016.5 hPa SSE 9.7 km/h 22.5 km/h 78 % 0 mm
21:44 29 °C 24.8 °C 1016.5 hPa SE 9.7 km/h 22.5 km/h 78 % 0 mm
21:49 28.9 °C 24.9 °C 1016.8 hPa SSE 8 km/h 22.5 km/h 79 % 0 mm
21:54 28.8 °C 24.8 °C 1016.8 hPa South 11.3 km/h 19.3 km/h 79 % 0 mm
21:59 28.8 °C 25 °C 1016.8 hPa SSE 4.8 km/h 19.3 km/h 80 % 0 mm
22:04 28.7 °C 24.9 °C 1016.5 hPa SE 4.8 km/h 17.7 km/h 80 % 0 mm
22:09 28.6 °C 25 °C 1016.8 hPa SSE 8 km/h 19.3 km/h 81 % 0 mm
22:14 28.6 °C 25 °C 1016.8 hPa SE 9.7 km/h 19.3 km/h 81 % 0 mm
22:19 28.4 °C 25 °C 1016.8 hPa ESE 12.9 km/h 19.3 km/h 82 % 0 mm
22:24 28.4 °C 25 °C 1016.8 hPa SE 9.7 km/h 16.1 km/h 82 % 0 mm
22:29 28.4 °C 25 °C 1016.8 hPa ESE 11.3 km/h 16.1 km/h 82 % 0 mm
22:34 28.3 °C 25.1 °C 1017.2 hPa SE 4.8 km/h 16.1 km/h 83 % 0 mm
22:39 28.3 °C 25.1 °C 1017.2 hPa SSE 11.3 km/h 16.1 km/h 83 % 0 mm
22:44 28.2 °C 25 °C 1017.2 hPa SSE 6.4 km/h 16.1 km/h 83 % 0 mm
22:49 28.1 °C 25.1 °C 1017.2 hPa SE 4.8 km/h 16.1 km/h 84 % 0 mm
22:54 28.1 °C 25.1 °C 1017.2 hPa SSE 3.2 km/h 16.1 km/h 84 % 0 mm
22:59 28.1 °C 25.1 °C 1017.2 hPa ESE 6.4 km/h 14.5 km/h 84 % 0 mm
23:04 27.9 °C 24.9 °C 1017.2 hPa SSW 3.2 km/h 14.5 km/h 84 % 0 mm
23:09 27.9 °C 25.1 °C 1017.2 hPa SSW 6.4 km/h 14.5 km/h 85 % 0 mm
23:14 27.8 °C 25 °C 1017.2 hPa South 8 km/h 11.3 km/h 85 % 0 mm
23:17 27.8 °C 25 °C 1017.2 hPa SE 6.4 km/h 11.3 km/h 85 % 0 mm
23:22 27.7 °C 25.1 °C 1017.2 hPa SE 8 km/h 11.3 km/h 86 % 0 mm
23:27 27.7 °C 25.1 °C 1017.2 hPa South 4.8 km/h 12.9 km/h 86 % 0 mm
23:32 27.7 °C 25.1 °C 1017.2 hPa SE 8 km/h 12.9 km/h 86 % 0 mm
23:33 27.7 °C 25.1 °C 1017.2 hPa ESE 4.8 km/h 12.9 km/h 86 % 0 mm
23:38 27.7 °C 25.1 °C 1017.2 hPa SE 3.2 km/h 12.9 km/h 86 % 0 mm
23:40 27.7 °C 25.1 °C 1017.2 hPa SSE 4.8 km/h 14.5 km/h 86 % 0 mm
23:45 27.7 °C 25.1 °C 1017.2 hPa South 8 km/h 14.5 km/h 86 % 0 mm
23:50 27.6 °C 25 °C 1016.8 hPa SE 8 km/h 16.1 km/h 86 % 0 mm
23:55 27.6 °C 25.2 °C 1016.8 hPa SE 11.3 km/h 16.1 km/h 87 % 0 mm
Spring, Texas: Villages of Bridgestone
Compliments of Weather Underground - 2.75 mb

Script developed by  Jim McMurry - jmcmurry@mwt.net Adapted for the template by  Wim van der Kuil - Leuven-Template.eu

You find our weather info also at:

UK Metoffice

WeatherCloud

Weather Underground

Mid-South Weather Network

AWEKAS

Citizen Weather Observer Program (CWOP)

HAMweather, WeatherForYou, PWS Weather

Equipment we use:

Weather-station
Davis Vantage Vue

Weather-program
Meteohub

Weather-server
Debian 7.9 x86 (Guest)

Provider
DreamHost

Davis Vantage Vue

Meteohub

Debian 7.9 x86 (Guest)

DreamHost